Location: Arezzo
(43.4170°N, 11.8830°E)
Time: 18:54:20
(UTC+02:00)

ISS - Visible Passes

Search period start: 31 March 2023 00:00
Search period end: 10 April 2023 00:00
Orbit: 414 x 423 km, 51.6° (Epoch: 31 March)

Date Brightness Start Highest point End Pass type
(mag) Time Alt. Az. Time Alt. Az. Time Alt. Az.
31 Mar -3.7 20:33:50 10° NW 20:37:10 68° NNE 20:39:19 20° ESE visible
31 Mar -0.9 22:11:24 10° W 22:12:17 14° WSW 22:12:17 14° WSW visible
01 Apr -2.2 21:23:04 10° WNW 21:25:57 27° SW 21:26:35 25° SSW visible
02 Apr -2.9 20:34:57 10° WNW 20:38:10 45° SW 20:40:55 13° SSE visible
03 Apr -0.8 21:26:10 10° SW 21:26:28 10° SW 21:26:44 10° SW visible
04 Apr -1.2 20:36:20 10° W 20:38:37 17° SW 20:40:53 10° S visible
